FENGYUN 1C DEB

Satellite information

Favourite Embed

Satellite Type and Status

DEBRISIN ORBIT

Key statistics

Satellite FENGYUN 1C DEB at a glance.

Uptime

9714

Days in orbit

Revolutions

≈ 13.3

Per day

Orbit

SSO

Sun Synchronous Orbit

Inclination

102.3

Latest

Satellite identification and parameters

Extended collection of information and parameters for FENGYUN 1C DEB.

Object identification

Identified? True

Debris? True

Object name: FENGYUN 1C DEB

International designator: 1999-025CKB

Object number (NORAD): 31861

Object ID (CCSDS): 31861

Country: PEOPLES REPUBLIC OF CHINA (PRC)

Current information (Y/N): Y

RCS size: SMALL

Orbital parameters

Period: 108.254 minutes

Inclination: 102.3423 deg

SMA: 7524.144 km

Apoapsis: 1519.669 km

Periapsis: 772.349 km

RAAN: 165.0071 deg

Eccentricy: 0.04966148

Argument of periapsis: 230.9853 deg

Mean anomaly: 124.6046 deg

Mean motion: 13.30200627 rev/day

Mean motion (dot): 0.00003105 rev/day2

B* drag term: 0.0034105388 1/REarth

Two-line elements (TLE)

Creation date: Dec. 1, 2025, 3:48 a.m.

Reference frame: TEME

Reference center: EARTH

Epoch: Nov. 30, 2025, 6:20 p.m. UTC

TLE line 0: 0 FENGYUN 1C DEB

TLE line 1: 1 31861U 99025CKB 25334.76455580 .00003105 00000-0 34105-2 0 9995

TLE line 2: 2 31861 102.3423 165.0071 0496615 230.9853 124.6046 13.30200627666080

Live tracking on map

Real-time ground track for satellite FENGYUN 1C DEB.

In-orbit conjunctions

A list of the most updated potential collisions computed for object FENGYUN 1C DEB.

Target Orbit TCA Probability of collision Miss distance Type
CZ-6A DEB LEO 2025-01-21 09:48:45 0.0001969117 364.0 (m) DEBRIS
COSMOS 2166 LEO 2024-11-28 21:09:08 0.0001558717 985.0 (m) PAYLOAD
CZ-6A DEB LEO 2024-10-05 07:01:59 0.0003991343 276.0 (m) DEBRIS

Associated space launch

Chinese polar orbiting meteorological satellite

FENGYUN 1C DEB was lifted into orbit during the mission ‘Long March 4B | Feng Yun 1C’, on board a Long March 4B space rocket.

The launch took place on May 10, 1999, 1:33 a.m. from Launch Complex 7.

For more information about the launch, click the button.

Launch to space Long March 4B | Feng Yun 1C
Long March 4B | Feng Yun 1C

Agency: N/A

Status: Launch Successful

Launch date: May 10, 1999, 1:33 a.m. UTC

Rocket: Long March 4B

Launch pad: Launch Complex 7

Location: Taiyuan Satellite Launch Center, People's Republic of China

...

Latest news about this satellite

There are no fresh news available about this satellite. Check back as we update our databases every day.


Newsletter sign-up

Weekly statistics, charts and insights to help you stay on top of the space industry.